Location: Fort Wayne
(41.1310°N, 85.1290°W)
Time: 23:54:27
(UTC-04:00)

Meteor 2-9 Rocket - Visible Passes

Search period start: 27 May 2015 00:00
Search period end: 06 June 2015 00:00
Orbit: 792 x 895 km, 81.3° (Epoch: 27 May)

Date Brightness Start Highest point End Pass type
(mag) Time Alt. Az. Time Alt. Az. Time Alt. Az.
27 May 4.4 21:30:44 10° N 21:36:33 66° ENE 21:42:23 10° SSE visible
27 May 6.7 23:15:08 10° NW 23:18:50 17° W 23:22:16 10° WSW visible
28 May 6.6 23:00:45 10° NW 23:04:50 19° W 23:08:42 10° SW visible
29 May 6.5 22:46:27 10° NW 22:50:51 22° W 22:55:04 10° SW visible
30 May 6.4 22:32:11 10° NW 22:36:51 24° W 22:41:22 10° SW visible
31 May 6.2 22:17:57 10° NNW 22:22:51 28° W 22:27:38 10° SW visible
01 Jun 6.1 22:03:45 10° NNW 22:08:51 31° W 22:13:52 10° SSW visible
02 Jun 5.9 21:49:33 10° NNW 21:54:51 35° W 22:00:02 10° SSW visible
03 Jun 5.8 21:35:24 10° NNW 21:40:50 40° W 21:46:11 10° SSW visible
